This demonstration page uses our WeatherBlox Daily Observations layout. Learn more.

Left ArrowRight Arrow

39.08367, -84.50855

Hourly Observations for October 16, 2021

Temp ( °F °C ) Dew Point ( °F °C ) Humidity (%) Winds ( mph kmh ) Pressure ( in mb ) Visibility ( mi km ) Precip ( " mm )
12:02 am 00:02 Mostly Cloudy with Heavy Rain 64 17.8 63 17.2 96 96 N 9 15 29.78 1009 1 2 0.16 4.06
12:06 am 00:06 Cloudy with Heavy Rain 64 17.8 64 17.8 100 100 N 8 13 29.78 1009 2 3 0.21 5.33
12:18 am 00:18 Cloudy with Rain 64 17.8 64 17.8 100 100 NNW 10 17 29.79 1009 4 6 0.24 6.10
12:53 am 00:53 Cloudy with Light Rain 64 17.8 63 17.2 96 96 N 5 7 29.80 1009 10 16 0.28 7.11
1:32 am 01:32 Cloudy with Light Rain 63 17.2 62 16.7 97 97 N 8 13 29.79 1009 10 16 0.01 0.25
1:51 am 01:51 Cloudy with Light Rain 63 17 63 17 100 100 N 8 13 29.78 1009 10 16 0.01 0.25
1:53 am 01:53 Cloudy with Light Rain 63 17.2 62 16.7 97 97 N 9 15 29.78 1009 10 16 0.01 0.25
2:36 am 02:36 Cloudy with Light Rain 62 16.7 61 16.1 96 96 N 9 15 29.79 1009 10 16 0.01 0.25
2:53 am 02:53 Cloudy with Rain 61 16.1 60 15.6 97 97 NNW 13 20 29.79 1009 6 10 0.03 0.76
3:53 am 03:53 Cloudy 57 13.9 55 12.8 93 93 NNW 16 26 29.82 1010 10 16 0.02 0.51
4:20 am 04:20 Cloudy 57 13.9 54 12.2 90 90 NNW 12 19 29.83 1010 10 16 N/A
4:34 am 04:34 Cloudy 57 13.9 54 12.2 90 90 VRB 5 7 29.85 1011 10 16 N/A
4:49 am 04:49 Cloudy 57 14 54 12 88 88 NW 8 13 29.86 1011 10 16 N/A
4:53 am 04:53 Cloudy 57 13.9 54 12.2 90 90 NW 9 15 29.86 1011 10 16 N/A
5:04 am 05:04 Cloudy 57 13.9 54 12.2 90 90 VRB 5 7 29.87 1012 10 16 N/A
5:53 am 05:53 Cloudy 56 13.3 51 10.6 84 84 NW 8 13 29.88 1012 10 16 N/A
6:53 am 06:53 Cloudy with Light Rain 55 12.8 50 10 83 83 NW 10 17 29.91 1013 10 16 0.00 0.00
7:15 am 07:15 Cloudy 54 12.2 49 9.4 83 83 WNW 9 15 29.93 1014 10 16 0.00 0.00
7:22 am 07:22 Cloudy 54 12.2 48 8.9 80 80 VRB 6 9 29.93 1014 10 16 0.00 0.00
7:53 am 07:53 Cloudy 54 12.2 47 8.3 77 77 NW 10 17 29.94 1014 10 16 0.00 0.00
8:00 am 08:00 Cloudy 54 12.2 47 8.3 77 77 NW 9 15 29.95 1014 10 16 N/A
8:07 am 08:07 Mostly Cloudy 54 12.2 47 8.3 77 77 WNW 10 17 29.95 1014 10 16 N/A
8:53 am 08:53 Partly Cloudy 53 11.7 47 8.3 80 80 W 12 19 29.98 1015 10 16 N/A
9:53 am 09:53 Partly Cloudy 55 12.8 48 8.9 77 77 W 14 22 30.00 1016 10 16 N/A
10:53 am 10:53 Mostly Sunny 57 13.9 48 8.9 72 72 W 14 22 30.02 1017 10 16 N/A
11:53 am 11:53 Partly Cloudy 59 15 47 8.3 64 64 WNW 13 20 30.03 1017 10 16 N/A
12:53 pm 12:53 Partly Cloudy 60 15.6 43 6.1 53 53 W 20 31 30.04 1017 10 16 N/A
1:53 pm 13:53 Mostly Sunny 60 15.6 41 5 50 50 W 16 26 30.04 1017 10 16 N/A
2:53 pm 14:53 Mostly Sunny 61 16.1 38 3.3 43 43 NW 13 20 30.03 1017 10 16 N/A
3:53 pm 15:53 Sunny 60 15.6 36 2.2 41 41 NW 15 24 30.04 1017 10 16 N/A
4:53 pm 16:53 Mostly Sunny 61 16.1 38 3.3 43 43 W 14 22 30.05 1018 10 16 N/A
5:53 pm 17:53 Sunny 60 15.6 36 2.2 41 41 W 14 22 30.06 1018 10 16 N/A
6:53 pm 18:53 Mostly Cloudy 57 13.9 37 2.8 47 47 W 9 15 30.07 1018 10 16 N/A
7:53 pm 19:53 Mostly Clear 55 12.8 38 3.3 53 53 WNW 9 15 30.09 1019 10 16 N/A
8:53 pm 20:53 Cloudy 55 12.8 39 3.9 55 55 W 7 11 30.10 1019 10 16 N/A
9:53 pm 21:53 Clear 53 11.7 39 3.9 59 59 W 6 9 30.12 1020 10 16 N/A
10:53 pm 22:53 Clear 52 11.1 40 4.4 64 64 W 6 9 30.14 1021 10 16 N/A
11:53 pm 23:53 Clear 51 10.6 40 4.4 66 66 W 8 13 30.14 1021 10 16 N/A

Powered by AerisWeather